Temp
22 23 24 22 20 17 19 21 22 23 25 24 23 24 25 24 25 24 21 22 22 22 21 21 21 20 19 18 18 18 18 18 17 18 18 18 18 18 17 17 17 17 16 16 16 16 16 16 16
22 23 22 16 18 18 18 20 23 24 25 23 23 24 25 25 22 21 21 21 22 22 21 21 21 20 19 18 18 18 17 17 17 17 18 18 18 18 18 17 17 16 16 16 16 16 16 16 16
22 22 19 17 15 17 19 22 22 22 21 24 25 23 23 24 22 21 23 22 21 21 20 20 20 19 19 18 18 17 17 17 17 18 18 18 18 18 18 17 17 17 16 16 16 16 16 16 16
21 18 16 18 18 18 20 22 22 21 23 24 24 25 23 23 23 23 23 22 21 20 20 20 20 19 19 18 18 17 17 17 17 17 18 18 18 18 18 18 17 17 17 17 16 16 16 16 16
19 15 17 17 17 19 19 21 21 21 22 24 24 25 24 23 23 23 23 22 21 20 20 20 20 19 19 18 18 18 17 17 17 17 18 18 18 18 18 18 17 17 17 16 16 16 15 15 15
17 15 16 16 18 19 19 20 21 22 22 22 24 23 23 23 23 22 23 23 22 21 20 20 19 19 19 19 18 18 17 17 17 17 17 17 18 18 18 18 17 17 17 16 16 16 15 15 16
16 15 16 17 17 19 20 20 22 22 22 23 23 23 23 22 23 23 22 22 21 21 20 20 19 19 19 19 18 18 18 17 17 17 17 17 18 18 18 18 17 17 17 16 16 16 16 16 17
14 15 16 15 17 18 21 22 23 22 23 23 23 23 24 23 23 22 21 21 20 20 20 20 19 19 19 19 18 18 18 18 17 17 17 17 17 17 17 17 17 17 17 16 16 17 17 17 17
15 15 15 16 17 18 21 21 21 22 22 22 23 22 23 23 22 22 20 19 19 20 20 20 19 19 19 19 18 18 18 18 17 17 17 17 17 18 17 18 17 17 17 17 17 17 17 17 17
15 14 16 16 17 19 20 20 20 21 20 21 22 23 22 21 21 20 19 19 19 20 20 20 19 19 19 18 18 18 18 18 17 17 17 17 18 18 17 17 17 17 17 17 17 17 17 18 17
15 15 17 17 19 18 19 19 20 20 19 20 22 20 20 20 20 19 20 20 20 20 20 20 20 19 19 18 18 18 18 18 17 17 17 17 18 18 18 18 17 18 17 17 17 17 17 17 16
15 15 16 17 18 17 18 18 17 19 19 20 19 20 20 21 18 19 20 21 21 20 20 20 20 19 19 18 19 19 18 18 17 17 17 18 18 18 17 17 18 17 17 17 16 16 16 16 16
14 14 16 16 16 16 17 17 17 17 18 18 19 19 18 18 18 21 22 22 21 21 22 21 20 20 19 19 19 19 18 18 18 18 18 18 18 17 18 17 17 17 16 16 16 16 16 16 15
14 14 14 15 16 16 16 16 17 18 18 17 17 18 18 17 18 20 21 23 23 23 23 22 21 21 20 19 19 19 19 18 18 18 18 17 17 17 18 17 16 16 15 15 15 15 15 15 14
14 13 13 14 15 15 17 16 16 18 17 17 16 17 17 18 19 18 22 23 25 25 24 23 22 21 20 20 20 19 19 18 18 18 18 18 17 17 16 16 15 15 15 15 15 14 14 14 14
15 14 13 14 15 15 16 16 18 18 17 17 18 16 16 18 18 20 21 22 24 24 24 22 21 20 20 20 19 19 18 18 18 18 18 17 16 16 16 16 15 15 15 14 14 14 13 13 13
14 13 13 14 16 16 15 16 18 17 16 15 15 15 15 16 17 19 21 22 22 22 22 22 20 19 19 19 18 18 18 17 17 18 17 16 16 16 16 15 15 14 14 14 13 12 12 11 12
13 13 13 14 15 14 13 14 15 16 16 16 15 15 15 15 17 20 20 21 20 21 21 21 19 18 18 18 17 17 16 16 16 16 16 16 16 16 16 15 14 14 13 13 12 11 10 9 9
12 11 11 12 13 13 13 14 15 15 14 15 16 17 15 15 16 18 20 19 19 19 19 19 18 18 18 17 16 15 15 15 15 15 15 15 16 15 15 14 13 13 13 11 10 10 10 9 8
12 12 12 12 13 12 13 13 15 14 15 15 15 16 15 16 15 15 17 18 18 19 18 17 18 17 17 17 16 15 15 14 14 14 14 14 15 14 14 13 13 12 11 10 10 9 9 8 7
10 10 10 10 12 12 12 13 15 16 16 16 16 17 17 16 15 15 14 16 17 17 18 17 17 16 16 16 16 14 14 13 12 13 13 14 14 13 13 12 12 11 10 9 8 8 7 7 7
10 12 12 11 10 10 12 12 15 15 15 15 16 16 16 16 14 14 13 13 16 17 17 17 16 16 16 16 16 16 13 12 12 12 12 12 12 12 12 11 10 10 9 8 8 7 6 6 5
11 12 11 11 11 10 11 11 12 13 14 15 14 13 15 16 15 14 13 15 15 16 15 16 15 15 16 16 16 15 13 13 13 12 12 11 11 11 10 10 10 9 8 8 7 6 6 5 4
12 11 11 11 11 11 12 11 14 14 15 15 15 15 15 15 13 14 14 13 14 14 14 14 14 14 15 15 15 17 16 13 12 11 11 10 10 10 9 9 9 8 7 7 6 6 5 5 4
11 10 11 11 11 11 12 11 14 15 15 15 15 14 14 13 12 11 11 11 11 12 13 13 14 13 14 14 15 16 16 15 13 11 11 10 9 9 9 8 8 7 6 6 5 5 5 4 3
10 11 11 11 9 10 12 12 12 14 16 16 17 15 14 12 11 12 12 12 11 11 12 12 13 13 13 14 14 14 15 14 13 12 11 10 9 9 8 7 7 6 6 5 5 4 4 3 3
10 10 11 11 11 11 11 12 14 15 14 14 14 14 13 12 11 12 12 12 11 11 11 12 12 13 13 13 13 13 13 13 11 10 10 9 8 8 7 7 6 5 5 4 4 4 3 3 2
11 11 10 10 11 11 10 12 12 15 15 14 15 13 13 12 11 11 11 10 10 10 11 12 13 13 12 12 12 12 12 11 11 10 9 8 7 7 6 6 5 5 4 4 3 3 3 2 2
10 10 10 10 11 10 9 11 13 15 14 15 14 15 14 12 12 11 10 9 8 9 10 10 11 11 11 11 11 11 10 10 9 9 8 7 7 6 6 5 4 4 3 3 3 2 2 1 1
12 11 11 11 9 9 8 13 15 13 13 14 13 12 12 11 11 10 9 8 8 8 8 9 9 10 10 10 10 10 9 9 8 8 7 6 6 5 5 4 4 3 3 2 2 2 1 1 0
Height
777 776 773 773 803 811 812 798 780 779 773 763 766 765 764 762 768 785 756 758 759 762 766 771 775 778 781 783 785 787 788 790 790 792 793 795 797 799 799 799 800 799 800 800 800 800 800 801 802
776 775 774 787 811 821 816 790 781 774 765 762 762 763 763 764 758 756 757 757 760 762 767 770 774 777 780 783 785 787 788 790 791 792 794 796 798 799 799 799 800 799 800 800 800 801 801 801 802
776 776 784 798 817 819 810 785 779 772 765 761 761 760 761 761 757 756 755 757 759 763 767 771 774 776 779 782 785 787 789 790 792 793 794 797 798 798 799 799 800 800 801 801 800 800 801 802 802
777 778 789 802 806 797 791 779 776 777 763 759 758 764 757 755 755 755 756 758 759 763 767 770 774 777 779 782 784 786 789 791 792 793 795 796 798 799 800 800 801 800 800 801 801 800 800 800 802
779 786 801 804 801 791 783 776 774 778 772 765 759 762 761 753 754 755 756 759 761 765 767 770 774 777 780 782 784 786 788 790 792 793 795 797 797 798 798 799 801 801 801 801 802 802 802 801 801
787 790 809 809 797 787 782 776 773 773 769 766 763 763 759 753 754 756 758 760 763 765 768 771 774 776 779 782 784 786 788 790 791 793 795 797 798 798 797 799 801 801 802 802 802 802 802 801 801
788 797 803 799 796 790 780 772 774 771 769 766 760 765 757 754 755 756 758 762 764 766 767 770 774 775 778 781 784 786 788 790 792 793 796 796 797 798 798 800 800 800 801 803 803 802 801 801 800
784 792 797 799 795 791 771 767 763 768 766 757 757 767 762 753 754 757 759 761 764 766 768 769 773 775 777 780 783 786 788 790 792 793 796 796 797 798 799 799 800 801 802 802 803 801 800 800 799
782 796 800 793 792 782 770 772 765 762 764 762 758 757 754 753 754 756 758 761 763 765 767 769 771 774 776 778 782 785 787 789 791 794 795 796 796 798 799 800 800 801 802 802 802 801 800 798 797
785 794 788 781 779 777 773 773 772 770 770 767 762 755 754 753 753 753 756 758 760 761 763 767 770 773 776 778 781 784 787 788 790 792 794 795 795 797 799 799 800 800 802 802 801 800 799 798 797
782 785 778 775 772 773 774 774 768 770 773 767 766 762 756 755 753 754 755 756 756 759 761 763 767 771 774 777 780 783 786 787 790 791 793 794 794 797 799 800 800 800 800 801 800 797 798 798 797
784 779 777 773 771 773 774 772 774 770 767 759 760 760 758 756 756 752 753 754 755 757 759 762 765 767 771 774 778 781 784 786 788 790 792 793 794 797 799 799 799 800 799 800 799 799 797 797 796
782 779 775 773 773 772 771 772 772 766 762 758 756 757 757 756 754 752 751 751 753 754 755 758 761 764 767 770 775 779 782 785 787 789 791 793 794 796 798 798 799 800 800 799 799 799 797 796 796
777 777 777 773 772 771 771 766 768 754 756 757 757 755 753 752 750 750 749 747 748 749 750 752 754 758 763 767 772 776 780 783 786 788 789 792 794 795 797 798 799 800 799 799 798 798 797 795 794
775 779 777 774 769 769 765 760 756 750 751 752 752 752 750 746 744 744 743 743 743 743 744 744 748 753 758 763 769 774 777 781 783 785 788 790 793 795 796 798 799 799 799 798 798 797 797 795 793
775 777 781 770 766 764 764 749 744 742 745 744 744 746 745 741 737 736 739 739 738 738 737 739 743 747 753 760 766 770 774 778 781 783 786 789 792 794 795 797 798 799 798 798 796 796 795 793 792
774 780 778 774 761 763 765 755 743 740 742 744 743 742 740 737 732 729 731 733 732 732 733 735 739 744 750 758 763 767 771 775 779 781 784 788 791 792 795 796 798 799 798 796 795 796 795 793 791
775 776 773 774 767 766 766 757 749 745 742 738 737 736 735 734 730 726 727 727 729 729 729 731 736 741 748 754 760 765 770 774 777 780 784 787 789 791 795 796 798 798 798 796 795 796 796 794 792
777 781 781 775 770 771 763 752 748 746 743 738 731 728 729 728 724 723 723 724 725 726 726 727 733 740 744 749 756 763 767 772 777 780 783 786 789 792 795 795 797 797 796 795 795 795 795 794 792
774 775 774 774 771 771 762 740 741 739 734 729 728 723 723 722 721 718 719 720 722 724 724 726 730 737 741 745 752 759 764 771 776 780 784 786 789 792 794 795 795 795 796 795 795 795 796 796 795
779 779 780 781 771 765 763 729 728 717 713 715 712 712 711 714 716 714 716 716 718 721 723 725 728 733 739 744 751 759 764 771 776 781 784 785 789 791 793 794 794 795 795 794 795 797 797 797 798
776 769 771 774 781 777 762 740 718 716 711 708 704 703 702 703 707 707 709 713 714 716 721 725 728 732 737 742 748 752 758 766 774 778 781 785 789 791 792 793 794 794 794 794 796 798 799 799 799
767 765 769 770 773 774 762 765 718 711 711 705 701 699 694 691 694 699 701 702 708 713 717 722 726 731 736 741 745 750 757 762 770 777 780 784 788 790 792 793 793 794 794 795 797 798 799 799 800
761 768 766 766 765 757 746 760 700 707 701 697 691 687 687 685 687 689 692 697 705 711 715 720 724 729 735 740 744 747 753 761 769 775 778 784 787 790 791 793 794 794 795 796 797 798 799 799 798
764 770 764 758 756 740 733 743 704 694 695 693 687 683 680 680 683 687 692 695 702 707 713 717 721 727 734 738 742 746 752 758 765 772 777 782 786 789 791 793 794 794 796 796 797 798 797 797 796
757 757 756 748 763 754 728 721 705 689 682 678 676 676 676 678 680 683 687 690 695 702 709 715 720 725 733 737 742 746 752 759 766 774 779 782 785 789 791 793 793 795 796 796 796 795 795 794 794
754 756 742 744 740 738 728 709 688 680 679 676 671 669 671 675 678 680 683 688 693 698 707 711 718 724 732 738 742 748 755 761 767 774 778 783 786 789 791 792 793 795 795 795 794 793 793 792 790
740 744 746 749 740 733 728 713 706 686 682 677 670 668 667 668 672 675 680 686 695 698 706 712 718 724 733 739 744 749 756 762 768 773 778 783 787 789 789 791 792 794 794 793 793 791 790 789 787
741 739 742 739 732 732 739 709 682 680 680 673 666 658 657 662 666 672 678 683 689 700 707 712 719 725 733 741 746 751 757 763 769 774 779 783 785 787 789 790 791 793 792 791 790 788 787 785 783
720 720 721 723 736 730 734 687 673 677 675 672 670 664 659 660 665 674 679 684 690 699 709 714 721 726 734 742 748 753 758 764 770 775 779 782 784 787 788 789 790 790 790 789 786 785 784 782 780
Wind_Speed
16 16 13 5 4 5 3 5 2 4 2 2 1 3 4 2 4 5 1 14 10 23 27 22 20 18 16 14 13 10 7 8 7 11 12 9 7 4 4 4 3 3 5 4 2 2 3 2 2
14 11 5 2 4 2 5 4 3 4 4 6 4 2 1 2 2 0 5 14 12 24 26 24 21 19 17 15 12 10 8 8 8 9 9 7 6 5 6 5 3 3 3 4 3 1 1 2 2
8 5 3 4 4 6 5 3 4 5 8 3 2 1 2 2 2 3 2 18 17 24 25 22 21 19 16 15 12 9 9 9 9 9 8 7 7 9 8 7 4 2 3 4 4 4 4 4 3
4 5 4 3 7 6 6 3 3 9 7 2 1 0 1 1 1 3 7 15 20 23 23 21 21 18 16 14 12 10 9 9 11 9 11 10 9 9 6 6 5 1 2 3 3 4 4 3 2
3 3 1 2 6 4 4 3 3 6 4 4 3 1 2 1 4 4 14 16 18 22 20 21 21 19 15 14 12 10 9 9 10 9 9 8 5 5 10 8 5 2 1 1 2 3 3 4 4
2 3 2 6 6 3 5 5 3 3 4 6 2 3 4 2 3 11 16 14 16 21 20 20 20 18 15 14 12 10 9 8 9 11 9 6 4 2 5 8 4 2 1 2 3 4 5 6 6
5 4 5 4 5 4 5 4 3 4 4 4 2 4 3 2 6 13 15 14 14 18 19 20 20 19 16 15 13 11 9 8 7 10 9 7 5 1 4 4 3 1 2 4 5 5 5 5 6
4 4 3 5 5 8 4 3 2 3 4 3 3 3 3 3 12 13 15 14 14 17 19 20 20 20 19 17 14 12 11 9 7 8 10 9 6 4 3 3 2 0 2 3 4 4 5 6 7
3 2 5 6 7 5 1 1 3 4 3 5 3 2 4 1 14 14 14 14 15 17 20 20 20 21 20 18 15 13 12 10 8 7 6 7 7 6 4 3 2 1 2 2 4 6 7 6 7
3 3 6 5 5 4 3 3 4 4 5 5 4 3 5 6 15 15 12 15 19 21 23 21 21 21 21 20 17 16 13 12 10 9 7 5 6 6 4 3 2 2 3 5 5 6 6 7 6
3 6 3 3 3 4 4 4 2 3 5 7 5 7 6 3 8 9 12 17 23 22 23 24 24 22 23 21 19 17 15 13 12 10 8 6 5 4 4 3 0 3 4 5 3 1 4 4 5
2 5 4 2 3 4 3 5 6 4 8 5 6 4 6 5 7 10 13 17 19 20 22 24 25 24 24 23 20 18 16 14 13 11 9 8 5 5 4 3 0 1 2 2 3 4 5 6 8
4 3 4 5 7 6 7 11 10 10 10 10 12 6 9 9 10 17 18 18 17 20 24 26 27 27 25 24 21 19 17 15 13 12 10 8 6 6 4 4 2 3 2 2 4 5 6 7 8
2 2 5 6 5 5 8 12 5 10 5 9 9 10 10 9 13 15 15 20 22 24 27 28 30 29 27 26 24 20 17 15 13 12 11 8 6 6 5 6 5 3 4 5 6 7 8 10 10
3 4 6 6 6 7 5 15 17 14 11 15 12 9 11 11 15 17 23 20 21 24 26 28 31 32 31 28 25 21 19 17 14 11 10 11 10 9 8 7 5 4 5 6 7 7 8 10 11
3 2 3 5 4 6 10 20 3 6 13 17 17 11 11 14 13 21 23 21 24 21 21 20 25 33 33 30 25 23 20 18 15 16 15 13 13 11 7 6 6 6 5 7 9 11 12 14 15
5 5 5 6 2 4 11 4 2 3 6 8 9 9 9 11 12 24 27 26 24 20 19 17 21 29 32 28 25 22 19 20 21 21 19 17 14 10 8 7 6 6 7 9 10 12 13 15 18
4 4 4 5 3 5 9 15 13 10 11 13 9 9 9 9 13 23 20 18 15 13 15 15 21 27 29 28 27 23 24 25 24 22 20 16 13 10 9 8 7 6 7 10 11 10 12 13 19
2 3 7 4 8 9 14 19 17 10 10 13 15 14 11 10 11 18 16 13 13 12 13 18 25 29 33 33 31 28 30 27 23 20 17 16 14 12 10 9 7 7 9 11 11 11 13 15 20
8 10 13 9 10 11 13 25 18 15 16 17 12 15 10 10 6 8 12 14 16 16 15 20 27 32 35 36 31 31 34 27 24 21 19 18 15 13 11 8 8 8 9 9 12 13 11 10 16
6 10 7 11 7 12 13 28 19 22 25 21 21 20 18 14 11 9 8 18 19 19 20 22 29 34 34 35 33 32 29 28 25 22 21 18 15 13 10 8 8 8 9 11 11 11 12 11 10
14 7 12 11 5 6 4 11 9 8 11 14 19 15 16 13 8 8 9 11 23 22 21 23 28 34 33 37 38 41 32 24 23 25 22 19 14 12 9 8 7 8 9 9 9 9 10 9 9
6 6 9 10 7 8 10 6 5 4 8 9 10 11 15 15 15 13 12 21 26 22 23 25 28 32 35 37 38 35 28 21 29 26 23 19 15 11 9 7 7 7 7 8 7 7 8 8 6
1 6 6 5 8 10 12 10 17 7 11 9 11 13 13 13 12 12 12 18 21 21 24 27 30 33 36 36 33 32 31 30 31 26 23 19 14 11 8 6 6 6 6 6 6 7 8 8 8
10 3 3 5 6 8 9 12 21 7 6 10 12 10 10 9 9 10 12 12 20 26 28 30 33 34 35 34 31 28 31 34 34 29 24 19 14 10 7 5 5 5 5 5 6 7 8 9 11
12 11 5 5 4 4 5 7 6 13 18 19 19 11 7 7 8 11 13 13 22 24 29 28 32 35 32 28 26 28 31 32 29 24 19 15 12 9 7 5 5 4 4 5 6 8 10 11 11
5 11 14 7 7 4 4 8 11 9 11 11 14 11 10 8 9 12 12 15 22 26 27 32 33 33 29 28 27 27 28 29 27 21 16 14 11 9 7 5 3 3 4 6 8 10 12 12 11
9 3 3 5 4 5 6 10 11 13 8 9 13 10 9 8 9 9 11 12 17 23 28 31 34 33 29 28 29 30 28 26 23 20 17 14 11 8 5 4 3 3 5 7 10 12 11 11 14
6 8 7 1 4 4 3 6 7 7 4 15 17 14 11 12 12 12 12 16 22 24 27 31 32 33 31 30 29 29 27 24 22 19 16 12 9 7 5 3 2 4 7 9 11 11 12 15 17
13 11 19 8 6 5 4 14 2 5 7 12 14 9 1 6 9 10 11 16 21 24 26 30 31 33 32 30 29 28 26 23 21 17 14 11 8 6 4 2 3 6 9 11 12 13 14 16 19
Wind_Direction
333 337 332 33 41 59 277 258 245 289 222 174 242 208 211 154 180 204 188 165 156 167 167 172 176 177 169 163 163 164 160 154 145 166 153 137 136 116 154 131 112 67 46 43 80 95 69 69 64
335 341 23 84 102 55 271 264 194 268 290 312 163 193 296 266 289 64 137 172 161 165 170 172 175 179 172 168 170 167 159 156 159 154 150 151 146 128 154 155 144 86 51 46 84 153 261 267 273
334 352 80 101 131 185 221 232 295 296 292 272 153 145 178 193 245 213 221 177 165 170 172 174 178 178 175 173 174 171 163 156 152 149 155 166 176 177 176 178 171 91 36 60 81 86 74 58 44
334 14 39 120 227 237 203 210 285 331 341 267 202 60 272 289 270 195 178 172 167 173 173 175 179 179 183 179 177 173 170 169 167 163 173 173 194 204 205 205 205 141 60 86 78 73 54 39 355
35 65 164 228 251 259 261 259 285 313 282 288 299 262 253 10 275 221 165 165 172 174 174 176 180 187 190 184 181 177 173 176 179 182 184 193 200 237 213 204 210 211 14 47 12 1 345 347 340
50 96 114 230 249 241 278 260 302 266 271 295 255 135 275 1 133 160 165 170 176 178 177 180 183 188 192 191 186 182 179 178 182 193 196 205 218 331 191 198 208 218 296 334 330 320 327 325 323
134 105 213 224 258 286 234 198 218 244 266 283 263 136 278 310 181 170 174 176 181 185 182 185 188 191 198 196 194 189 186 183 182 189 200 205 203 148 155 181 200 231 301 323 323 332 342 359 6
111 121 186 225 207 268 220 213 195 191 265 304 159 225 267 246 170 170 182 186 191 193 193 191 196 196 200 197 199 195 191 190 185 185 201 214 218 205 173 190 192 349 336 353 350 2 7 0 352
135 116 221 219 171 236 346 7 335 303 325 329 287 189 290 320 162 157 180 198 200 200 203 202 202 206 205 199 200 201 197 195 197 200 203 213 210 207 204 180 181 72 354 340 341 340 331 329 334
165 185 228 198 191 261 294 340 353 339 345 318 322 285 336 180 175 167 176 196 207 208 208 209 210 210 209 205 203 203 203 202 205 211 216 206 184 185 200 204 218 268 293 316 324 334 338 331 337
179 231 238 255 269 284 273 294 230 272 284 225 265 319 340 294 192 196 205 210 216 216 213 211 214 215 213 211 208 207 208 208 211 213 203 180 171 186 210 215 267 305 290 293 296 338 11 10 10
206 243 223 283 338 318 280 321 311 253 244 247 278 274 307 292 262 218 225 227 225 222 225 220 219 218 214 214 212 210 210 211 210 203 196 189 177 178 185 188 171 98 87 84 77 38 31 7 1
201 240 274 282 299 275 278 263 259 253 263 278 289 288 269 268 254 250 245 249 243 233 236 228 223 220 215 211 210 209 210 210 201 197 194 194 194 199 200 151 143 123 118 76 33 16 9 3 2
210 232 265 268 263 268 265 266 242 242 225 271 265 274 270 251 244 255 247 254 255 250 248 240 227 221 214 210 208 206 205 204 199 197 199 203 191 172 181 145 135 111 68 38 17 8 4 5 2
230 314 301 228 225 245 252 263 238 252 231 248 247 251 266 262 266 226 238 240 257 263 267 247 230 220 212 208 206 204 202 200 197 197 181 175 182 174 158 148 124 83 49 31 19 9 4 1 6
270 184 313 311 227 249 175 262 315 244 223 230 243 236 244 257 255 247 250 258 262 261 258 242 227 220 209 205 201 204 201 196 194 170 171 168 159 153 151 133 97 70 47 29 17 11 7 8 4
201 242 245 301 278 259 205 310 283 323 318 257 252 245 242 250 262 263 261 263 260 255 242 227 215 211 204 199 195 199 189 182 170 163 158 155 151 141 142 120 98 73 46 34 26 15 9 4 356
209 232 221 233 308 351 290 275 278 288 299 281 261 255 246 243 251 264 270 258 245 234 225 214 201 200 191 183 180 170 164 159 154 151 151 150 140 135 135 121 103 74 46 41 30 22 22 15 357
198 231 258 288 295 315 280 276 275 269 265 266 271 271 261 249 257 267 263 236 213 208 192 186 185 186 180 171 160 153 149 147 146 146 145 143 138 137 133 118 98 66 41 42 33 28 18 17 8
245 265 270 276 249 260 280 276 279 267 259 257 244 262 252 252 244 246 230 203 206 207 186 180 183 180 178 175 164 157 152 149 147 144 143 141 140 136 130 111 88 65 56 48 36 30 26 22 20
225 238 259 257 295 273 286 282 268 259 246 244 244 240 247 241 234 223 207 210 205 205 194 182 180 178 177 170 161 154 145 141 139 142 139 134 140 135 123 106 85 71 54 48 42 34 29 16 16
260 208 238 251 249 256 146 288 265 290 275 237 247 237 235 221 220 214 198 197 207 206 196 189 182 180 176 171 166 161 153 149 159 151 143 139 139 130 118 102 84 63 55 53 43 32 28 22 17
249 192 212 228 236 273 235 273 300 237 276 264 250 231 227 218 211 202 199 201 205 193 188 186 184 181 177 175 174 162 156 160 156 151 145 142 136 126 115 98 76 64 56 48 34 24 17 13 7
159 228 243 244 236 247 228 207 275 233 241 234 239 234 227 225 207 203 193 173 179 182 180 181 180 178 178 177 175 176 168 157 153 152 148 144 136 126 110 92 77 65 55 41 24 12 0 354 346
201 215 246 223 211 245 172 212 242 267 270 256 254 250 241 225 193 171 162 160 164 173 177 178 178 173 177 181 179 177 173 169 165 160 155 148 139 127 114 100 82 62 44 27 10 358 349 342 336
192 190 213 244 232 266 211 238 245 222 244 260 258 265 266 207 187 178 178 172 168 168 172 171 172 171 180 179 172 170 169 165 160 159 153 145 141 132 121 101 74 55 28 8 353 347 341 333 328
173 213 228 266 264 256 249 294 286 253 243 246 244 231 219 205 184 184 174 174 165 162 170 169 168 168 170 167 161 160 161 158 154 153 149 143 137 130 120 96 73 41 11 352 344 340 338 331 332
196 149 195 196 220 235 241 259 250 298 324 297 278 245 228 202 179 170 168 155 161 157 163 167 170 163 161 160 156 153 153 153 151 149 145 143 136 128 112 96 62 18 356 345 340 337 337 332 330
188 220 208 254 209 215 252 252 194 193 266 350 324 271 223 183 181 170 157 144 136 145 155 160 161 157 154 155 151 147 146 146 144 144 142 139 132 123 115 93 38 356 349 344 340 341 338 331 330
224 221 212 214 220 229 193 254 62 186 36 1 335 323 167 160 150 152 143 136 137 137 146 151 155 153 152 152 148 144 143 142 141 140 138 134 132 126 108 65 6 350 345 346 346 341 336 333 328